Weather History for KPEO - October, 2013

Change the Weather History Date:

Monday, October 7, 2013

  Actual Average (KITH) Record (KITH)
Temperature  
Mean Temperature 63 °F -  
Max Temperature 73 °F 62 °F 87 °F (1941)
Min Temperature 51 °F 40 °F 24 °F (1964)
Degree Days  
Heating Degree Days 2    
Growing Degree Days 13 (Base 50)    
Moisture  
Dew Point 55 °F    
Average Humidity 81    
Maximum Humidity 94    
Minimum Humidity 51    
Precipitation  
Precipitation 0.74 in - - ()
Sea Level Pressure  
Sea Level Pressure 29.76 in    
Wind  
Wind Speed 10 mph (SW)    
Max Wind Speed 16 mph    
Max Gust Speed 29 mph    
Visibility 6 miles    
Events Rain    
Averages and records for this station are not official NWS values.
T = Trace of Precipitation, MM = Missing Value Source: NWS Daily Summary

Daily Weather History Graph

Daily Weather History Graph

Search for Another Location

Airport or City:

Trip Planner

Search our weather history database for the weather conditions in past years. The results will help you decide how hot, cold, wet, or windy it might be!

Date:

Astronomy

Oct. 07, 2013 Rise Set
Actual Time 7:12 AM EDT 6:38 PM EDT
Civil Twilight 6:44 AM EDT 7:06 PM EDT
Nautical Twilight 6:11 AM EDT 7:39 PM EDT
Astronomical Twilight 5:38 AM EDT 8:12 PM EDT
Moon 10:04 AM EDT (10/7) 8:17 PM EDT (10/7)
Length of Visible Light 12h 22m
Length of Day
11h 26m
Waxing Crescent, 8% of the Moon is Illuminated
Oct 7
Waxing Crescent
Oct 11
First Quarter
Oct 18
Full
Oct 26
Last Quarter
Nov 3
New

Hourly Weather History & Observations

Time (EDT) Temp. Dew Point Humidity Pressure Visibility Wind Dir Wind Speed Gust Speed Precip Events Conditions
12:53 AM 69.1 °F 64.0 °F 84% 29.80 in 7.0 mi SSE 6.9 mph 16.1 mph N/A   Clear
1:53 AM 71.1 °F 63.0 °F 75% 29.78 in 9.0 mi South 11.5 mph 23.0 mph N/A   Clear
2:53 AM 72.0 °F 63.0 °F 73% 29.74 in 10.0 mi South 12.7 mph 23.0 mph N/A   Clear
3:53 AM 71.1 °F 63.0 °F 75% 29.71 in 10.0 mi SSE 12.7 mph - N/A   Scattered Clouds
4:53 AM 71.1 °F 62.1 °F 73% 29.70 in 10.0 mi SSE 16.1 mph 23.0 mph N/A   Clear
5:53 AM 72.0 °F 62.1 °F 71% 29.70 in 10.0 mi South 15.0 mph - N/A   Partly Cloudy
6:53 AM 71.1 °F 62.1 °F 73% 29.68 in 10.0 mi South 9.2 mph - N/A   Clear
7:53 AM 71.1 °F 62.1 °F 73% 29.67 in 10.0 mi South 9.2 mph - N/A   Mostly Cloudy
8:53 AM 73.0 °F 63.0 °F 71% 29.64 in 10.0 mi SSE 13.8 mph 20.7 mph N/A   Mostly Cloudy
9:44 AM 60.8 °F 57.2 °F 88% 29.68 in 2.0 mi SW 10.4 mph 28.8 mph 0.06 in Rain Heavy Rain
9:48 AM 60.8 °F 57.2 °F 88% 29.68 in 0.8 mi WSW 12.7 mph 28.8 mph 0.16 in Rain Heavy Rain
9:53 AM 59.0 °F 57.0 °F 93% 29.68 in 0.8 mi West 8.1 mph 24.2 mph 0.17 in Rain Rain
10:03 AM 59.0 °F 57.2 °F 94% 29.71 in 1.5 mi WSW 10.4 mph 16.1 mph 0.05 in Rain Rain
10:18 AM 59.0 °F 57.2 °F 94% 29.72 in 0.8 mi SSW 8.1 mph 17.3 mph 0.21 in Rain Heavy Rain
10:26 AM 59.0 °F 57.2 °F 94% 29.71 in 1.8 mi SW 6.9 mph - 0.22 in Rain Rain
10:29 AM 59.0 °F 57.2 °F 94% 29.71 in 3.0 mi SW 8.1 mph - 0.23 in Rain Rain
10:38 AM 59.0 °F 57.2 °F 94% 29.71 in 2.5 mi WSW 11.5 mph 17.3 mph 0.26 in Rain Rain
10:51 AM 59.0 °F 57.2 °F 94% 29.72 in 4.0 mi SW 6.9 mph - 0.30 in Rain Rain
10:53 AM 59.0 °F 57.0 °F 93% 29.71 in 4.0 mi SW 5.8 mph - 0.30 in Rain Rain
10:58 AM 59.0 °F 57.2 °F 94% 29.73 in 2.0 mi SW 9.2 mph - 0.02 in Rain Heavy Rain
11:06 AM 59.0 °F 57.2 °F 94% 29.71 in 1.0 mi WSW 13.8 mph 20.7 mph 0.08 in Rain Heavy Rain
11:13 AM 59.0 °F 55.4 °F 88% 29.71 in 2.5 mi WSW 15.0 mph 20.7 mph 0.10 in Rain Rain
11:21 AM 57.2 °F 55.4 °F 94% 29.72 in 4.0 mi WSW 10.4 mph 20.7 mph 0.12 in Rain Rain
11:53 AM 57.9 °F 55.0 °F 90% 29.71 in 9.0 mi SW 8.1 mph - 0.15 in Rain Light Rain
12:15 PM 57.2 °F 55.4 °F 94% 29.73 in 2.5 mi SW 4.6 mph - 0.05 in Rain Rain
12:25 PM 57.2 °F 55.4 °F 94% 29.73 in 4.0 mi SW 4.6 mph - 0.06 in Rain Light Rain
12:53 PM 57.0 °F 55.0 °F 93% 29.72 in 6.0 mi SW 5.8 mph - 0.08 in Rain Light Rain
1:53 PM 57.0 °F 55.0 °F 93% 29.73 in 10.0 mi SSW 6.9 mph - 0.04 in   Overcast
2:53 PM 59.0 °F 52.0 °F 78% 29.76 in 10.0 mi WSW 12.7 mph 18.4 mph N/A   Overcast
3:53 PM 63.0 °F 45.0 °F 52% 29.78 in 10.0 mi SW 8.1 mph 19.6 mph N/A   Partly Cloudy
4:53 PM 60.1 °F 42.1 °F 51% 29.81 in 10.0 mi WSW 13.8 mph 21.9 mph N/A   Mostly Cloudy
5:53 PM 57.9 °F 39.9 °F 51% 29.85 in 10.0 mi WSW 16.1 mph 21.9 mph N/A   Partly Cloudy
6:53 PM 57.0 °F 41.0 °F 55% 29.88 in 10.0 mi SW 8.1 mph 19.6 mph N/A   Scattered Clouds
7:53 PM 55.0 °F 42.1 °F 62% 29.92 in 10.0 mi WSW 11.5 mph 18.4 mph N/A   Partly Cloudy
8:53 PM 54.0 °F 42.1 °F 64% 29.94 in 10.0 mi WSW 10.4 mph - N/A   Clear
9:53 PM 55.0 °F 44.1 °F 67% 29.99 in 10.0 mi WSW 9.2 mph 18.4 mph N/A   Mostly Cloudy
10:53 PM 53.1 °F 46.0 °F 77% 30.03 in 10.0 mi WSW 11.5 mph 24.2 mph 0.00 in   Mostly Cloudy
11:53 PM 51.1 °F 46.0 °F 83% 30.05 in 10.0 mi SW 9.2 mph - N/A   Clear